Regional Weather Roundup
Issued by NWS

Home | Current Version | Previous Version | Graphics & Text | Print | Product List | Glossary On
Versions: 1 2 3 4 5 6 7 8 9 10 11 12 13 14 15 16 17 18 19 20 21 22 23 24 25 26 27 28 29 30 31 32 33 34 35 36 37 38 39 40 41 42 43 44 45 46 47 48 49 50
000
ASUS43 KTOP 281708
RWRKS

WEATHER ROUNDUP FOR KANSAS
NATIONAL WEATHER SERVICE GOODLAND KS
1200 PM CDT FRI APR 28 2017

NOTE:  "FAIR" INDICATES FEW OR NO CLOUDS BELOW 12,000 FEET WITH NO
SIGNIFICANT WEATHER AND/OR OBSTRUCTIONS TO VISIBILITY.

KSZ001>006-013>018-027>032-041>047-281800-
NORTHWEST KANSAS

CITY           SKY/WX    TMP DP  RH WIND       PRES   REMARKS
GOODLAND       MOSUNNY   50  40  68 N12       29.71S
HAYS           SUNNY     59  46  62 NW16G25   29.66R
HILL CITY      CLOUDY    56  44  64 NW12      29.68R
RUSSELL        MOSUNNY   60  45  57 W18       29.65R
$$

KSZ061>065-074>080-084>089-281800-
SOUTHWEST KANSAS

CITY           SKY/WX    TMP DP  RH WIND       PRES   REMARKS
DODGE CITY     SUNNY     63  39  41 NW12G18   29.68R
ELKHART          N/A     61  36  39 E2          N/A
GARDEN CITY    SUNNY     61  41  47 N13       29.67S
GREAT BEND     SUNNY     61  46  57 W14       29.67R
LIBERAL        SUNNY     62  38  40 NE8       29.66F
PRATT          SUNNY     60  42  51 NW7       29.68R
$$

KSZ066>073-081>083-090>101-281800-
SOUTHEAST KANSAS

CITY           SKY/WX    TMP DP  RH WIND       PRES   REMARKS
CHANUTE        CLOUDY    61  56  83 S12       29.67R
COFFEYVILLE    CLOUDY    63  58  83 S5        29.67R
HUTCHINSON     SUNNY     66  47  50 NW12G20   29.64S
MEDICINE LODGE   N/A     66  43  43 N14G21    29.66R
NEWTON         PTSUNNY   64  54  69 W12       29.65S
PARSONS        CLOUDY    61  57  87 CALM      29.68R
WICHITA INTL   MOSUNNY   67  53  61 W10G17    29.64S
WICHITA JABRA  PTSUNNY   65  53  65 W9        29.64S
WICHITA MCCONL PTSUNNY   64  54  68 NW8       29.64S
WINFIELD       MOSUNNY   66  56  70 VRB5      29.65S
$$

KSZ007>012-019>026-033>040-048>060-102>105-281800-
NORTHEAST KANSAS

CITY           SKY/WX    TMP DP  RH WIND       PRES   REMARKS
CONCORDIA      CLOUDY    51  51 100 NE5       29.68R
EMPORIA        CLOUDY    61  57  87 S7        29.65S
LAWRENCE       LGT RAIN  58  57  97 CALM      29.68R FOG
MANHATTAN      CLOUDY    57  54  89 VRB3      29.66R
MARYSVILLE     DRIZZLE   45  43  93 NE10G17   29.70R
OLATHE IND     CLOUDY    59  57  93 S8        29.68S
OLATHE EXE     CLOUDY    60  57  89 S10       29.67F
SALINA         MOSUNNY   66  52  60 VRB6      29.65S
TOPEKA BILLARD CLOUDY    59  56  89 SE7       29.67S
TOPEKA FORBES  CLOUDY    59  55  87 E6        29.66S
$$




USA.gov is the U.S. government's official web portal to all federal, state and local government web resources and services.